When you browse on this site, cookies collect data to enhance your experience and personalize the content and advertising you see.
Visit our Privacy Policy to learn more. By continuing to use the site, you agree to this use of cookies and data.
  • In Hungary
  • List of Countries
  • For 7 days
  • Water Temperature
  • Weather Map
  • News
  • Weather Widgets
  • user-avatar
    Login

    Hourly Weather Khyzha

    Today, 12 December, Thursday

    Time Temperature Precipitation Wind Pressure Humidity
    00:00 +4°C° 0 mm 2 mps 739 mmHg 94%
    01:00 +4°C° 0 mm 2 mps 739 mmHg 92%
    02:00 +3°C° 0 mm 3 mps 739 mmHg 92%
    03:00 +3°C° 0 mm 3 mps 739 mmHg 93%
    04:00 +3°C° 0 mm 3 mps 738 mmHg 93%
    05:00 +2°C° 0 mm 3 mps 737 mmHg 93%
    06:00 +1°C° 0 mm 4 mps 737 mmHg 91%
    07:00 +1°C° 0 mm 4 mps 737 mmHg 89%
    08:00 +1°C° 0 mm 4 mps 737 mmHg 89%
    09:00 +1°C° 0 mm 4 mps 737 mmHg 88%
    10:00 +3°C° 0 mm 4 mps 737 mmHg 89%
    11:00 +4°C° 0 mm 4 mps 736 mmHg 88%
    12:00 +5°C° 0 mm 3 mps 736 mmHg 87%
    13:00 +7°C° 0 mm 3 mps 736 mmHg 88%
    14:00 +7°C° 0 mm 3 mps 736 mmHg 87%
    15:00 +8°C° 0 mm 3 mps 735 mmHg 87%
    16:00 +7°C° 0 mm 2 mps 735 mmHg 89%
    17:00 +6°C° 0 mm 2 mps 734 mmHg 91%
    18:00 +6°C° 0 mm 2 mps 734 mmHg 91%
    19:00 +4°C° 0 mm 3 mps 734 mmHg 91%
    20:00 +4°C° 0 mm 3 mps 733 mmHg 91%
    21:00 +3°C° 0 mm 3 mps 733 mmHg 90%
    22:00 +3°C° 0 mm 4 mps 733 mmHg 89%
    23:00 +3°C° 0 mm 4 mps 732 mmHg 89%

    Tomorrow, 13 December, Friday

    Time Temperature Precipitation Wind Pressure Humidity
    00:00 +3°C° 0 mm 4 mps 732 mmHg 89%
    01:00 +3°C° 0 mm 4 mps 731 mmHg 90%
    02:00 +3°C° 0 mm 4 mps 731 mmHg 90%
    03:00 +3°C° 0 mm 4 mps 731 mmHg 90%
    04:00 +3°C° 0 mm 4 mps 730 mmHg 91%
    05:00 +2°C° 0 mm 5 mps 729 mmHg 93%
    06:00 +2°C° 0 mm 5 mps 729 mmHg 95%
    07:00 +2°C° 0 mm 5 mps 729 mmHg 96%
    08:00 +3°C° 0 mm 5 mps 729 mmHg 95%
    09:00 +3°C° 0 mm 5 mps 728 mmHg 95%
    10:00 +3°C° 0 mm 5 mps 728 mmHg 93%
    11:00 +3°C° 0.3 mm 6 mps 728 mmHg 98%
    12:00 +4°C° 1.3 mm 7 mps 727 mmHg 97%
    13:00 +5°C° 0.2 mm 7 mps 726 mmHg 90%
    14:00 +6°C° 0 mm 7 mps 726 mmHg 87%
    15:00 +6°C° 0 mm 7 mps 726 mmHg 87%
    16:00 +5°C° 0 mm 7 mps 726 mmHg 87%
    17:00 +5°C° 0 mm 7 mps 725 mmHg 90%
    18:00 +5°C° 0 mm 7 mps 725 mmHg 89%
    19:00 +4°C° 0 mm 6 mps 726 mmHg 90%
    20:00 +4°C° 0 mm 6 mps 726 mmHg 91%
    21:00 +4°C° 0 mm 6 mps 726 mmHg 91%
    22:00 +5°C° 0 mm 5 mps 727 mmHg 90%
    23:00 +3°C° 0 mm 5 mps 727 mmHg 90%

    Day after tomorrow, 14 December, Saturday

    Time Temperature Precipitation Wind Pressure Humidity
    00:00 +3°C° 0 mm 5 mps 727 mmHg 91%
    01:00 +4°C° 0 mm 4 mps 727 mmHg 91%
    02:00 +3°C° 0 mm 4 mps 727 mmHg 92%
    03:00 +2°C° 0 mm 5 mps 727 mmHg 93%
    04:00 +3°C° 0 mm 4 mps 727 mmHg 91%
    05:00 +3°C° 0 mm 4 mps 727 mmHg 92%
    06:00 +3°C° 0 mm 4 mps 727 mmHg 92%
    07:00 +3°C° 0 mm 4 mps 728 mmHg 91%
    08:00 +3°C° 0 mm 3 mps 728 mmHg 89%
    09:00 +3°C° 0 mm 3 mps 729 mmHg 89%
    10:00 +4°C° 0 mm 3 mps 729 mmHg 90%
    11:00 +6°C° 0 mm 2 mps 730 mmHg 89%
    12:00 +7°C° 0 mm 3 mps 731 mmHg 89%
    13:00 +8°C° 0 mm 3 mps 731 mmHg 89%
    14:00 +7°C° 0 mm 4 mps 732 mmHg 89%
    15:00 +7°C° 0 mm 3 mps 732 mmHg 90%
    16:00 +7°C° 0 mm 2 mps 733 mmHg 94%
    17:00 +7°C° 0 mm 1 mps 733 mmHg 97%
    18:00 +5°C° 0 mm 3 mps 734 mmHg 98%
    19:00 +4°C° 0.4 mm 3 mps 734 mmHg 100%
    20:00 +4°C° 0.4 mm 3 mps 735 mmHg 100%
    21:00 +4°C° 0 mm 3 mps 736 mmHg 100%
    22:00 +4°C° 0 mm 3 mps 736 mmHg 100%
    23:00 +4°C° 0 mm 3 mps 737 mmHg 100%

    15 December, Sunday

    Time Temperature Precipitation Wind Pressure Humidity
    00:00 +3°C° 0 mm 3 mps 738 mmHg 100%
    01:00 +3°C° 0 mm 3 mps 738 mmHg 100%
    02:00 +3°C° 0.3 mm 4 mps 739 mmHg 100%
    03:00 +3°C° 0.1 mm 2 mps 740 mmHg 100%
    04:00 +2°C° 0 mm 3 mps 740 mmHg 100%
    05:00 +2°C° 0 mm 3 mps 740 mmHg 100%
    06:00 +1°C° 0 mm 3 mps 740 mmHg 100%
    07:00 +2°C° 0 mm 2 mps 741 mmHg 100%
    08:00 +2°C° 0 mm 2 mps 741 mmHg 99%
    09:00 +2°C° 0 mm 2 mps 741 mmHg 96%
    10:00 +4°C° 0 mm 1 mps 742 mmHg 97%
    11:00 +4°C° 0 mm 2 mps 742 mmHg 94%
    12:00 +5°C° 0 mm 2 mps 743 mmHg 92%
    13:00 +5°C° 0 mm 3 mps 743 mmHg 91%
    14:00 +5°C° 0 mm 3 mps 743 mmHg 89%

    16 December, Monday

    Time Temperature Precipitation Wind Pressure Humidity

    17 December, Tuesday

    Time Temperature Precipitation Wind Pressure Humidity
    Show more